Skip Page Navigation
NASA JPL Caltech
NASA Logo - Jet Propulsion Laboratory + View the NASA Portal
+ Center for Near-Earth Object Studies
JPL Home Earth Solar System Stars & Galaxies Technology
JPL Solar System Dynamics
BODIES ORBITS EPHEMERIDES TOOLS PHYSICAL DATA DISCOVERY FAQ SITE MAP
JPL Small-Body Database Browser
Search: [ help ]  
442153 (2010 VO188)
Classification: Outer Main-belt Asteroid          SPK-ID: 2442153
Ephemeris | Orbit Diagram | Orbital Elements | Mission Design | Physical Parameters | Discovery Circumstances | Close-Approach Data ]

[ show orbit diagram ]
Orbital Elements at Epoch 2459000.5 (2020-May-31.0) TDB
Reference: JPL 11 (heliocentric ecliptic J2000)
 Element Value Uncertainty (1-sigma)   Units 
e .07776967657694658 1.2209e-07  
a 3.206078070230207 7.8054e-08 au
q 2.956742415627963 4.4163e-07 au
i 6.689028313055529 1.2136e-05 deg
node 343.9074109761603 6.1326e-05 deg
peri 339.6547679164735 9.5364e-05 deg
M 322.9655823802474 6.7534e-05 deg
tp 2459216.206179068263
(2021-Jan-01.70617907)
0.00039071 TDB
period 2096.812356059764
5.74
7.6572e-05
2.096e-07
d
yr
n .1716891828491968 6.2698e-09 deg/d
Q 3.455413724832452 8.4124e-08 au
  Orbit Determination Parameters
   # obs. used (total)      109  
   data-arc span      6649 days (18.20 yr)  
   first obs. used      2001-02-16  
   last obs. used      2019-05-02  
   planetary ephem.      DE431  
   SB-pert. ephem.      SB431-N16  
   condition code      0  
   norm. resid. RMS      .61005  
   source      ORB  
   producer      Otto Matic  
   solution date      2020-Feb-26 10:40:28  

Additional Information
 Earth MOID = 1.94591 au 
 Jupiter MOID = 1.85736 au 
 T_jup = 3.177 
[ show covariance matrix ]

Ephemeris | Orbit Diagram | Orbital Elements | Mission Design | Physical Parameters | Discovery Circumstances | Close-Approach Data ]

Physical Parameter Table
Parameter Symbol Value Units Sigma Reference Notes
absolute magnitude H 16.1   n/a MPO434642  

442153 (2010 VO188)          Discovered 2001-Feb-16 by Spacewatch at Kitt Peak
Reference: Last Updated: 2015-09-02

[ show close-approach data ]
Alternate Designations
 2010 VO188 = 2001 DZ56 
Ephemeris | Orbit Diagram | Orbital Elements | Mission Design | Physical Parameters | Discovery Circumstances | Close-Approach Data ]
ABOUT SSD CREDITS/AWARDS PRIVACY/COPYRIGHT GLOSSARY LINKS
FirstGov 2020-Jul-08 15:47 UT
(server date/time)  
NASA Home Page
Site Manager:   Ryan S. Park
Webmaster  Alan B. Chamberlin